When you browse on this site, cookies collect data to enhance your experience and personalize the content and advertising you see.
Visit our Privacy Policy to learn more. By continuing to use the site, you agree to this use of cookies and data.
  • In Hungary
  • List of Countries
  • For 7 days
  • Water Temperature
  • Weather Map
  • News
  • Weather Widgets
  • user-avatar
    Login

    Hourly Weather Kolchanka

    Today, 25 August, Sunday

    Time Temperature Precipitation Wind Pressure Humidity
    00:00 +16°C° 0 mm 2 mps 754 mmHg 69%
    01:00 +16°C° 0 mm 2 mps 754 mmHg 70%
    02:00 +16°C° 0 mm 2 mps 754 mmHg 71%
    03:00 +16°C° 0 mm 2 mps 754 mmHg 75%
    04:00 +15°C° 0 mm 2 mps 754 mmHg 79%
    05:00 +15°C° 0 mm 2 mps 754 mmHg 83%
    06:00 +17°C° 0 mm 2 mps 754 mmHg 79%
    07:00 +18°C° 0 mm 3 mps 754 mmHg 75%
    08:00 +20°C° 0 mm 3 mps 755 mmHg 71%
    09:00 +21°C° 0 mm 3 mps 755 mmHg 66%
    10:00 +22°C° 0 mm 4 mps 755 mmHg 60%
    11:00 +23°C° 0 mm 4 mps 755 mmHg 55%
    12:00 +25°C° 0 mm 4 mps 755 mmHg 54%
    13:00 +25°C° 0 mm 4 mps 755 mmHg 52%
    14:00 +25°C° 0 mm 4 mps 755 mmHg 51%
    15:00 +23°C° 0 mm 4 mps 755 mmHg 53%
    16:00 +22°C° 0 mm 4 mps 755 mmHg 56%
    17:00 +22°C° 0 mm 3 mps 755 mmHg 58%
    18:00 +20°C° 0 mm 3 mps 755 mmHg 64%
    19:00 +19°C° 0 mm 3 mps 755 mmHg 69%
    20:00 +17°C° 0 mm 3 mps 756 mmHg 75%
    21:00 +16°C° 0 mm 3 mps 756 mmHg 77%
    22:00 +16°C° 0 mm 2 mps 756 mmHg 79%
    23:00 +15°C° 0 mm 2 mps 756 mmHg 82%

    Tomorrow, 26 August, Monday

    Time Temperature Precipitation Wind Pressure Humidity
    00:00 +15°C° 0 mm 2 mps 756 mmHg 84%
    01:00 +14°C° 0 mm 2 mps 757 mmHg 86%
    02:00 +14°C° 0 mm 2 mps 757 mmHg 89%
    03:00 +14°C° 0 mm 2 mps 757 mmHg 90%
    04:00 +13°C° 0 mm 2 mps 757 mmHg 92%
    05:00 +13°C° 0 mm 2 mps 757 mmHg 93%
    06:00 +15°C° 0 mm 2 mps 757 mmHg 85%
    07:00 +16°C° 0 mm 2 mps 757 mmHg 77%
    08:00 +18°C° 0 mm 2 mps 757 mmHg 69%
    09:00 +19°C° 0 mm 2 mps 757 mmHg 64%
    10:00 +20°C° 0 mm 2 mps 757 mmHg 58%
    11:00 +21°C° 0 mm 2 mps 757 mmHg 53%
    12:00 +23°C° 0 mm 2 mps 757 mmHg 50%
    13:00 +23°C° 0 mm 1 mps 757 mmHg 47%
    14:00 +24°C° 0 mm 1 mps 756 mmHg 44%
    15:00 +24°C° 0 mm 1 mps 756 mmHg 46%
    16:00 +24°C° 0 mm 1 mps 755 mmHg 48%
    17:00 +21°C° 0 mm 0 mps 755 mmHg 50%
    18:00 +22°C° 0 mm 1 mps 755 mmHg 53%
    19:00 +20°C° 0 mm 1 mps 755 mmHg 57%
    20:00 +18°C° 0 mm 1 mps 755 mmHg 60%
    21:00 +18°C° 0 mm 1 mps 755 mmHg 62%
    22:00 +16°C° 0 mm 1 mps 755 mmHg 63%
    23:00 +16°C° 0 mm 1 mps 754 mmHg 65%

    Day after tomorrow, 27 August, Tuesday

    Time Temperature Precipitation Wind Pressure Humidity
    00:00 +15°C° 0 mm 1 mps 754 mmHg 67%
    01:00 +15°C° 0 mm 2 mps 754 mmHg 69%
    02:00 +15°C° 0 mm 2 mps 754 mmHg 71%
    03:00 +15°C° 0 mm 2 mps 753 mmHg 73%
    04:00 +14°C° 0 mm 2 mps 753 mmHg 75%
    05:00 +14°C° 0 mm 2 mps 753 mmHg 78%
    06:00 +16°C° 0 mm 3 mps 753 mmHg 74%
    07:00 +17°C° 0 mm 3 mps 752 mmHg 70%
    08:00 +19°C° 0 mm 4 mps 752 mmHg 67%
    09:00 +20°C° 0 mm 4 mps 752 mmHg 63%
    10:00 +21°C° 0 mm 4 mps 751 mmHg 60%
    11:00 +23°C° 0 mm 5 mps 751 mmHg 56%
    12:00 +23°C° 0.1 mm 5 mps 751 mmHg 57%
    13:00 +23°C° 0.1 mm 6 mps 750 mmHg 58%
    14:00 +24°C° 0.1 mm 6 mps 750 mmHg 60%
    15:00 +23°C° 0.2 mm 6 mps 750 mmHg 63%
    16:00 +22°C° 0.2 mm 5 mps 750 mmHg 66%
    17:00 +21°C° 0.2 mm 5 mps 749 mmHg 69%
    18:00 +20°C° 0 mm 4 mps 750 mmHg 72%
    19:00 +19°C° 0 mm 4 mps 750 mmHg 74%
    20:00 +17°C° 0 mm 4 mps 750 mmHg 76%
    21:00 +17°C° 0 mm 4 mps 750 mmHg 75%
    22:00 +16°C° 0 mm 3 mps 750 mmHg 73%
    23:00 +14°C° 0 mm 3 mps 750 mmHg 72%

    28 August, Wednesday

    Time Temperature Precipitation Wind Pressure Humidity
    00:00 +13°C° 0 mm 3 mps 751 mmHg 75%
    01:00 +13°C° 0 mm 3 mps 751 mmHg 78%
    02:00 +12°C° 0 mm 3 mps 751 mmHg 81%
    03:00 +12°C° 0 mm 3 mps 751 mmHg 84%
    04:00 +11°C° 0 mm 3 mps 751 mmHg 87%
    05:00 +11°C° 0 mm 3 mps 752 mmHg 89%
    06:00 +12°C° 0 mm 4 mps 752 mmHg 82%
    07:00 +13°C° 0 mm 4 mps 752 mmHg 75%
    08:00 +14°C° 0 mm 5 mps 752 mmHg 68%
    09:00 +14°C° 0 mm 5 mps 752 mmHg 61%
    10:00 +15°C° 0 mm 5 mps 752 mmHg 55%
    11:00 +16°C° 0 mm 5 mps 752 mmHg 48%
    12:00 +17°C° 0 mm 5 mps 752 mmHg 47%
    13:00 +17°C° 0 mm 5 mps 752 mmHg 45%
    14:00 +17°C° 0 mm 6 mps 752 mmHg 44%
    15:00 +17°C° 0 mm 5 mps 752 mmHg 45%
    16:00 +16°C° 0 mm 5 mps 752 mmHg 47%
    17:00 +15°C° 0 mm 5 mps 752 mmHg 49%
    18:00 +14°C° 0 mm 4 mps 753 mmHg 55%
    19:00 +12°C° 0 mm 4 mps 753 mmHg 60%
    20:00 +11°C° 0 mm 3 mps 753 mmHg 65%
    21:00 +10°C° 0 mm 3 mps 754 mmHg 69%
    22:00 +9°C° 0 mm 3 mps 754 mmHg 72%
    23:00 +8°C° 0 mm 3 mps 754 mmHg 76%

    29 August, Thursday

    Time Temperature Precipitation Wind Pressure Humidity
    00:00 +8°C° 0 mm 2 mps 754 mmHg 78%
    01:00 +8°C° 0 mm 2 mps 754 mmHg 80%
    02:00 +7°C° 0 mm 2 mps 754 mmHg 83%
    03:00 +7°C° 0 mm 3 mps 754 mmHg 83%
    04:00 +7°C° 0 mm 3 mps 755 mmHg 83%
    05:00 +5°C° 0 mm 3 mps 755 mmHg 84%
    06:00 +8°C° 0 mm 3 mps 755 mmHg 77%
    07:00 +10°C° 0 mm 4 mps 755 mmHg 70%
    08:00 +11°C° 0 mm 4 mps 755 mmHg 63%
    09:00 +12°C° 0 mm 5 mps 755 mmHg 58%
    10:00 +13°C° 0 mm 5 mps 755 mmHg 54%
    11:00 +14°C° 0 mm 5 mps 755 mmHg 49%
    12:00 +15°C° 0 mm 5 mps 755 mmHg 48%
    13:00 +15°C° 0 mm 5 mps 755 mmHg 47%
    14:00 +16°C° 0 mm 5 mps 755 mmHg 46%
    15:00 +15°C° 0 mm 4 mps 755 mmHg 48%
    16:00 +15°C° 0 mm 4 mps 755 mmHg 50%
    17:00 +15°C° 0 mm 4 mps 755 mmHg 52%
    18:00 +13°C° 0 mm 3 mps 755 mmHg 58%
    19:00 +11°C° 0 mm 3 mps 755 mmHg 64%
    20:00 +10°C° 0 mm 3 mps 755 mmHg 69%
    21:00 +9°C° 0 mm 3 mps 755 mmHg 71%
    22:00 +9°C° 0 mm 2 mps 755 mmHg 73%
    23:00 +8°C° 0 mm 2 mps 756 mmHg 75%

    30 August, Friday

    Time Temperature Precipitation Wind Pressure Humidity
    00:00 +8°C° 0 mm 2 mps 756 mmHg 76%
    01:00 +7°C° 0 mm 2 mps 756 mmHg 78%
    02:00 +7°C° 0 mm 2 mps 756 mmHg 79%
    03:00 +6°C° 0 mm 2 mps 756 mmHg 81%
    04:00 +6°C° 0 mm 2 mps 756 mmHg 82%
    05:00 +6°C° 0 mm 2 mps 756 mmHg 84%
    06:00 +8°C° 0 mm 2 mps 756 mmHg 76%
    07:00 +10°C° 0 mm 3 mps 756 mmHg 68%
    08:00 +11°C° 0 mm 3 mps 756 mmHg 60%
    09:00 +13°C° 0 mm 3 mps 756 mmHg 54%
    10:00 +14°C° 0 mm 3 mps 756 mmHg 47%
    11:00 +16°C° 0 mm 3 mps 756 mmHg 41%
    12:00 +17°C° 0 mm 3 mps 756 mmHg 39%
    13:00 +18°C° 0 mm 3 mps 755 mmHg 37%
    14:00 +18°C° 0 mm 3 mps 755 mmHg 35%
    15:00 +18°C° 0 mm 3 mps 754 mmHg 39%
    16:00 +17°C° 0 mm 3 mps 754 mmHg 44%
    17:00 +17°C° 0 mm 3 mps 754 mmHg 48%
    18:00 +15°C° 0 mm 2 mps 754 mmHg 52%
    19:00 +14°C° 0 mm 2 mps 754 mmHg 57%
    20:00 +12°C° 0 mm 2 mps 754 mmHg 62%
    21:00 +12°C° 0 mm 2 mps 754 mmHg 63%
    22:00 +12°C° 0 mm 2 mps 753 mmHg 64%
    23:00 +11°C° 0 mm 3 mps 753 mmHg 66%
    Show more